Temp
70 70 71 72 73 74 73 71 69 65 65 65 66 66 66 63 61 59 57 58 59 55
68 67 68 69 72 72 73 72 71 68 65 65 65 63 62 60 59 59 59 58 55 51
65 65 65 66 67 68 70 70 68 66 66 63 62 60 59 57 58 57 56 52 48 45
63 63 63 60 59 58 59 62 62 62 62 61 59 57 55 54 53 52 48 46 44 40
62 62 62 62 60 58 57 57 58 58 57 57 56 56 53 49 49 44 42 41 40 38
58 59 59 59 58 57 55 55 54 54 53 53 53 52 51 47 45 43 41 41 41 39
53 54 55 55 54 53 54 53 52 52 51 50 50 48 47 44 42 40 41 40 39 40
51 51 50 49 47 48 48 46 46 45 45 45 44 43 42 40 39 37 36 36 36 35
46 45 44 43 42 42 42 42 42 41 41 41 42 43 43 40 38 37 36 33 32 34
43 43 41 41 40 39 39 40 39 40 41 41 42 43 42 40 36 35 33 32 32 33
40 39 38 37 36 36 36 34 36 37 38 38 40 41 40 37 33 32 32 33 34 35
37 36 36 34 34 34 34 33 33 33 33 33 35 38 37 34 32 32 33 34 36 38
37 36 34 34 33 33 34 33 34 33 33 36 34 37 38 37 37 37 37 38 39 37
37 36 35 34 34 34 33 33 33 33 36 38 39 40 40 39 40 39 39 38 38 38
MSLP
1009.79 1009.56 1009.29 1009.05 1008.89 1008.80 1008.91 1009.30 1009.95 1010.24 1010.39 1010.59 1010.90 1011.36 1011.85 1012.40 1012.90 1013.57 1014.14 1014.49 1014.89 1015.66
1009.77 1009.63 1009.35 1009.19 1008.94 1008.76 1008.71 1008.85 1009.21 1009.53 1009.88 1010.19 1010.49 1010.84 1011.30 1011.77 1012.35 1012.98 1013.63 1014.17 1015.05 1015.56
1010.00 1009.80 1009.58 1009.29 1009.05 1008.91 1008.79 1008.79 1008.95 1009.20 1009.40 1009.77 1010.21 1010.72 1011.25 1011.76 1012.11 1012.71 1013.46 1014.50 1015.52 1016.30
1010.18 1009.98 1009.77 1009.79 1009.67 1009.61 1009.57 1009.44 1009.43 1009.37 1009.43 1009.74 1010.15 1010.69 1011.18 1011.71 1012.28 1013.11 1014.06 1014.77 1015.35 1016.23
1010.58 1010.25 1009.88 1009.78 1009.62 1009.82 1009.91 1009.43 1009.58 1009.91 1009.91 1010.07 1010.32 1010.76 1011.27 1011.93 1012.67 1013.61 1014.46 1015.16 1015.88 1016.73
1010.96 1010.70 1010.31 1010.27 1010.28 1010.33 1010.06 1010.22 1010.06 1010.12 1010.52 1010.67 1010.99 1011.34 1011.87 1012.36 1013.10 1014.00 1014.88 1015.52 1016.04 1017.14
1011.91 1011.62 1011.46 1011.08 1010.84 1011.20 1010.77 1010.77 1010.92 1010.96 1011.48 1011.73 1011.76 1012.28 1012.76 1013.29 1013.87 1014.71 1015.42 1016.22 1016.81 1017.47
1012.84 1012.65 1012.36 1012.39 1012.09 1011.83 1011.96 1011.88 1011.99 1012.41 1012.86 1012.91 1013.12 1013.27 1013.66 1014.31 1014.68 1015.40 1016.35 1017.19 1017.73 1018.04
1013.60 1013.52 1013.61 1013.61 1013.21 1012.93 1013.07 1013.05 1012.75 1013.57 1013.56 1013.39 1013.92 1014.27 1014.21 1015.02 1015.47 1016.13 1016.69 1017.58 1018.19 1018.32
1014.39 1014.32 1014.39 1014.34 1014.19 1014.15 1014.19 1014.12 1014.16 1014.30 1014.47 1014.37 1014.59 1014.98 1015.22 1015.69 1016.61 1017.05 1017.79 1018.14 1018.49 1019.19
1015.13 1015.06 1014.97 1015.11 1015.31 1015.36 1015.38 1015.56 1014.97 1015.68 1015.68 1016.04 1015.98 1015.83 1016.25 1016.50 1017.32 1018.24 1018.46 1018.65 1019.12 1019.52
1015.90 1015.85 1015.78 1015.87 1016.06 1016.32 1016.36 1016.61 1016.92 1017.13 1017.28 1017.52 1017.47 1017.39 1017.60 1017.78 1018.41 1018.54 1018.97 1019.15 1019.29 1019.38
1016.78 1016.60 1016.65 1016.87 1016.97 1017.24 1017.38 1017.60 1017.89 1018.20 1018.27 1018.29 1018.12 1018.08 1018.06 1018.20 1018.41 1018.73 1019.05 1019.33 1019.51 1019.72
1017.50 1017.46 1017.58 1017.78 1017.93 1018.04 1018.27 1018.50 1018.72 1019.01 1018.95 1018.66 1018.64 1018.77 1018.91 1018.91 1018.99 1019.08 1019.27 1019.42 1019.52 1019.68
Wind_Speed
6 6 8 12 12 10 10 10 12 12 12 14 14 13 13 10 11 13 11 14 12 7
6 6 7 10 10 9 11 9 11 12 11 12 12 12 12 9 11 11 11 11 10 6
6 7 7 7 8 9 9 10 10 12 12 10 10 9 10 9 9 10 8 6 7 7
7 6 6 6 7 6 7 8 9 9 8 9 9 9 9 8 8 8 9 9 11 11
9 8 7 6 4 5 7 4 4 4 4 6 7 9 9 9 8 11 11 10 11 12
9 9 8 7 7 5 3 4 1 2 3 4 5 7 8 9 11 11 11 11 11 10
10 9 9 7 7 6 6 6 7 7 4 5 6 9 11 11 12 12 11 11 10 11
9 8 8 8 8 8 8 9 10 9 8 9 8 7 11 11 13 13 11 9 9 8
7 8 9 8 9 9 9 9 10 9 8 10 7 17 20 12 10 10 11 9 8 6
7 9 9 9 10 9 9 8 9 9 8 9 10 18 19 18 9 9 7 7 7 5
8 8 10 10 10 10 9 9 8 9 10 9 9 20 20 20 10 8 8 7 5 4
6 7 8 9 9 7 9 9 8 8 10 10 10 17 17 13 7 8 6 5 4 4
7 7 8 8 9 8 8 9 7 8 7 12 9 12 11 8 5 6 4 4 3 0
8 8 8 8 7 8 8 7 7 6 5 6 7 8 7 6 3 3 3 2 1 1
Wind_Direction
277 260 257 252 254 255 255 237 238 232 222 220 222 222 218 213 211 205 209 208 208 191
303 286 273 275 269 257 255 252 250 239 223 227 222 217 209 207 207 205 211 214 200 175
320 321 315 304 287 276 272 262 243 244 235 220 214 206 207 209 207 197 198 179 144 101
337 337 330 327 312 293 292 277 266 250 233 218 205 199 192 193 180 171 153 139 128 118
330 332 327 326 318 309 290 241 252 252 221 217 202 191 185 158 149 139 137 127 118 122
351 344 345 352 353 348 1 334 91 151 224 187 174 166 155 132 128 126 126 126 125 128
4 4 3 13 30 14 42 54 44 58 68 88 112 116 116 112 110 107 109 105 115 125
14 15 20 23 38 51 51 65 76 76 83 89 91 103 108 108 108 108 103 101 99 101
35 37 35 36 44 55 65 74 79 86 93 95 99 118 116 109 108 111 114 109 101 101
45 54 53 49 55 50 53 61 71 80 81 91 107 108 105 98 86 89 90 103 103 103
55 62 67 66 61 58 59 57 56 63 74 71 85 100 99 90 78 91 85 83 111 132
51 65 67 67 61 54 66 61 60 57 60 66 72 88 93 88 86 89 106 113 131 135
56 66 68 70 71 68 72 73 70 67 67 79 80 79 92 106 110 116 117 130 132 90
66 71 73 74 72 79 77 79 74 73 89 109 113 118 98 85 100 115 139 160 187 167